DEXGS ETOU-EDFE

Flight info

Callsign DEXGS
Flight time 0h 15m
Altitude 1000
Route ETOU
Aircraft DA40/L-ABCDEFG/4447

Departure

Time 2026-04-26 11:01
Airport Wiesbaden Army Airfield (ETOU)

Arrival

Time 2026-04-26 11:17
Airport Frankfurt-Egelsbach Airport (EDFE)
Time Latitude Longitude Altitude Speed Heading
2026-04-26 10:22 50.04598 8.32739 458 ft 0 kts 302°
2026-04-26 10:23 50.04598 8.32740 458 ft 0 kts 302°
2026-04-26 10:23 50.04597 8.32740 458 ft 0 kts 302°
2026-04-26 10:30 50.04597 8.32741 458 ft 0 kts 302°
2026-04-26 10:33 50.04597 8.32740 458 ft 0 kts 306°
2026-04-26 10:33 50.04624 8.32736 458 ft 8 kts 354°
2026-04-26 10:34 50.04651 8.32696 458 ft 7 kts 252°
2026-04-26 10:34 50.04628 8.32604 458 ft 11 kts 239°
2026-04-26 10:34 50.04592 8.32467 458 ft 15 kts 251°
2026-04-26 10:34 50.04565 8.32303 457 ft 19 kts 261°
2026-04-26 10:35 50.04558 8.32202 457 ft 0 kts 264°
2026-04-26 10:41 50.04558 8.32203 457 ft 0 kts 264°
2026-04-26 10:44 50.04556 8.32180 457 ft 6 kts 263°
2026-04-26 10:44 50.04547 8.32075 457 ft 13 kts 262°
2026-04-26 10:44 50.04532 8.31899 457 ft 19 kts 263°
2026-04-26 10:45 50.04561 8.31758 456 ft 17 kts 329°
2026-04-26 10:45 50.04670 8.31639 456 ft 18 kts 323°
2026-04-26 10:45 50.04726 8.31576 455 ft 0 kts 324°
2026-04-26 10:45 50.04728 8.31574 455 ft 0 kts 321°
2026-04-26 10:46 50.04728 8.31573 455 ft 0 kts 321°
2026-04-26 10:46 50.04729 8.31573 455 ft 0 kts 320°
2026-04-26 10:48 50.04728 8.31573 455 ft 0 kts 321°
2026-04-26 10:50 50.04729 8.31572 455 ft 0 kts 333°
2026-04-26 10:51 50.04730 8.31572 455 ft 0 kts 333°
2026-04-26 10:52 50.04729 8.31572 455 ft 0 kts 333°
2026-04-26 10:54 50.04729 8.31573 455 ft 0 kts 333°
2026-04-26 11:00 50.04737 8.31565 455 ft 5 kts 327°
2026-04-26 11:00 50.04783 8.31535 454 ft 6 kts 36°
2026-04-26 11:00 50.04794 8.31566 454 ft 0 kts 68°
2026-04-26 11:01 50.04805 8.31624 454 ft 23 kts 75°
2026-04-26 11:01 50.04924 8.32206 535 ft 73 kts 72°
2026-04-26 11:01 50.05080 8.32960 833 ft 76 kts 75°
2026-04-26 11:01 50.05253 8.33780 1070 ft 85 kts 75°
2026-04-26 11:02 50.05441 8.34707 1283 ft 94 kts 60°
2026-04-26 11:02 50.05943 8.35282 1387 ft 95 kts
2026-04-26 11:02 50.06534 8.34884 1435 ft 102 kts 307°
2026-04-26 11:02 50.06536 8.33758 1410 ft 114 kts 257°
2026-04-26 11:03 50.06314 8.32547 1448 ft 116 kts 256°
2026-04-26 11:03 50.06062 8.31315 1417 ft 123 kts 253°
2026-04-26 11:03 50.05818 8.30059 1392 ft 122 kts 254°
2026-04-26 11:03 50.05547 8.28831 1335 ft 116 kts 251°
2026-04-26 11:04 50.05173 8.27950 1255 ft 90 kts 197°
2026-04-26 11:04 50.04600 8.28166 1027 ft 87 kts 138°
2026-04-26 11:04 50.04326 8.29031 780 ft 99 kts 96°
2026-04-26 11:04 50.04505 8.30032 626 ft 92 kts 79°
2026-04-26 11:05 50.04678 8.30913 513 ft 80 kts 78°
2026-04-26 11:05 50.04822 8.31675 454 ft 67 kts 81°
2026-04-26 11:05 50.04959 8.32402 575 ft 80 kts 78°
2026-04-26 11:05 50.05141 8.33277 794 ft 92 kts 73°
2026-04-26 11:06 50.05408 8.34225 984 ft 103 kts 65°
2026-04-26 11:06 50.05635 8.34892 1084 ft 109 kts 62°
2026-04-26 11:06 50.06198 8.36261 1319 ft 114 kts 55°
2026-04-26 11:06 50.06672 8.37277 1423 ft 117 kts 52°
2026-04-26 11:07 50.07186 8.38290 1466 ft 122 kts 50°
2026-04-26 11:07 50.07724 8.39319 1551 ft 127 kts 49°
2026-04-26 11:07 50.08092 8.40031 1545 ft 127 kts 51°
2026-04-26 11:07 50.08700 8.41499 1636 ft 123 kts 58°
2026-04-26 11:08 50.09086 8.42682 1696 ft 123 kts 62°
2026-04-26 11:08 50.09433 8.43899 1625 ft 130 kts 66°
2026-04-26 11:08 50.09754 8.45112 1632 ft 118 kts 64°
2026-04-26 11:08 50.10101 8.46276 1602 ft 116 kts 62°
2026-04-26 11:09 50.10544 8.47250 1593 ft 116 kts 50°
2026-04-26 11:09 50.11062 8.48230 1507 ft 116 kts 49°
2026-04-26 11:09 50.11556 8.49190 1497 ft 117 kts 49°
2026-04-26 11:09 50.12068 8.50180 1551 ft 120 kts 49°
2026-04-26 11:10 50.12494 8.51220 1815 ft 115 kts 69°
2026-04-26 11:10 50.12718 8.52415 1857 ft 126 kts 71°
2026-04-26 11:10 50.12830 8.53367 1891 ft 131 kts 77°
2026-04-26 11:10 50.12895 8.54798 1965 ft 131 kts 82°
2026-04-26 11:11 50.12844 8.56646 1852 ft 128 kts 105°
2026-04-26 11:11 50.12560 8.57491 1762 ft 130 kts 117°
2026-04-26 11:11 50.12067 8.58608 1713 ft 128 kts 131°
2026-04-26 11:11 50.11384 8.59471 1618 ft 125 kts 140°
2026-04-26 11:12 50.10687 8.60276 1517 ft 124 kts 143°
2026-04-26 11:12 50.09910 8.60849 1500 ft 123 kts 158°
2026-04-26 11:12 50.09084 8.61081 1528 ft 127 kts 173°
2026-04-26 11:12 50.08200 8.61156 1490 ft 124 kts 181°
2026-04-26 11:13 50.07412 8.60682 1472 ft 128 kts 212°
2026-04-26 11:13 50.06705 8.59903 1368 ft 130 kts 207°
2026-04-26 11:13 50.05849 8.59592 1301 ft 130 kts 183°
2026-04-26 11:13 50.04984 8.59562 1300 ft 127 kts 176°
2026-04-26 11:14 50.04086 8.59503 1257 ft 128 kts 181°
2026-04-26 11:14 50.03189 8.59354 1284 ft 135 kts 183°
2026-04-26 11:14 50.02264 8.59195 1231 ft 138 kts 184°
2026-04-26 11:14 50.01292 8.59307 1009 ft 144 kts 164°
2026-04-26 11:15 50.00351 8.59628 1049 ft 136 kts 166°
2026-04-26 11:15 49.99390 8.59899 999 ft 145 kts 166°
2026-04-26 11:15 49.98374 8.60172 906 ft 146 kts 168°
2026-04-26 11:15 49.97379 8.60432 862 ft 145 kts 167°
2026-04-26 11:16 49.96397 8.60718 764 ft 132 kts 154°
2026-04-26 11:16 49.95974 8.61588 677 ft 88 kts 89°
2026-04-26 11:16 49.96005 8.62463 483 ft 76 kts 84°
2026-04-26 11:16 49.96041 8.63205 384 ft 66 kts 83°
2026-04-26 11:17 49.96070 8.63843 379 ft 52 kts 86°
2026-04-26 11:17 49.96094 8.64356 387 ft 44 kts 88°
2026-04-26 11:17 49.96113 8.64718 386 ft 32 kts 87°
2026-04-26 11:17 49.96119 8.64975 385 ft 6 kts 15°
2026-04-26 11:18 49.96155 8.64926 384 ft 12 kts 307°
2026-04-26 11:18 49.96188 8.64628 388 ft 44 kts 260°
2026-04-26 11:18 49.96168 8.64232 385 ft 22 kts 271°
2026-04-26 11:18 49.96207 8.64146 383 ft 9 kts 334°
2026-04-26 11:19 49.96265 8.64086 380 ft 1 kts 326°
2026-04-26 11:19 49.96270 8.64116 380 ft 6 kts 70°
2026-04-26 11:19 49.96304 8.64182 379 ft 10 kts 49°
2026-04-26 11:19 49.96366 8.64224 379 ft 6 kts
2026-04-26 11:20 49.96375 8.64230 378 ft 2 kts 52°
2026-04-26 11:20 49.96372 8.64271 379 ft 10 kts 94°
2026-04-26 11:20 49.96395 8.64442 381 ft 13 kts 92°
2026-04-26 11:20 49.96394 8.64573 382 ft 1 kts